Gillette, WY

2:06 PM MDT on October 01, 2014 (GMT -0600)
Gillette-Campbell County | Change Station
CLOSE
Current Station
Airport
Location: Gillette,
Elevation: 4364 ft
Nearby Weather Stations

Elev 4364 ft 44.34 °N, 105.54 °W | Updated 13 minutes ago

Overcast
Overcast
50 °F
Feels Like 50 °F
N
15
Wind Variable Wind from NW

Today
High -- | Low -- °F
--% Chance of Precip.
Yesterday
High -- | Low -- °F
Precip. -- in
7:00 AM 6:43 PM
Waxing Crescent, 50% visible
Pressure 29.89 in
Visibility 10.0 miles
Clouds Few 3000 ft
Mostly Cloudy 4000 ft
Overcast 7500 ft
Dew Point 38 °F
Humidity 63%
Rainfall 0.22 in
Snow Depth 0 in , 1 in , 1 in
UV 2 out of 12
Pollen 3.40 out of 12
Air Quality Not available.
Flu Activity Not available.
METAR KGCC 011953Z AUTO 32013KT 10SM FEW030 BKN040 OVC075 10/03 A2993 RMK AO2 SLP121 T01000033

More Conditions Fewer Conditions

Pressure 29.89 in
Visibility 10.0 miles
Clouds Few 3000 ft
Mostly Cloudy 4000 ft
Overcast 7500 ft
Dew Point 38 °F
Humidity 63%
Rainfall 0.22 in
Snow Depth 0 in , 1 in , 1 in
UV 2 out of 12
Pollen 3.40 out of 12
Air Quality Not available.
Flu Activity Not available.
METAR KGCC 011953Z AUTO 32013KT 10SM FEW030 BKN040 OVC075 10/03 A2993 RMK AO2 SLP121 T01000033

More Conditions Fewer Conditions

10-Day Weather Forecast

Almanac

Astronomy

Oct. 01, 2014 Rise Set
Actual Time 7:00 AM MDT 6:43 PM MDT
Civil Twilight 6:31 AM MDT 7:12 PM MDT
Nautical Twilight 5:57 AM MDT 7:45 PM MDT
Astronomical Twilight 5:23 AM MDT 8:20 PM MDT
Moon 2:13 PM MDT No Moon Set
Length of Visible Light 12h 40m
Length of Day
11h 42m
Tomorrow will be 3m 4s shorter.
Waxing Crescent, 50% of the Moon is Illuminated
Today
Waxing Crescent
Oct 8
Full
Oct 15
Last Quarter
Oct 23
New
Oct 30
First Quarter

Today's Extremes

State Highs State Lows

Community

WunderPhotos

Upload Photos

1,758,021 photos uploaded!

WunderBlogs® & News

By Dr. Jeff Masters
Director of Meteorology, Weather Underground
By Kari Strenfel
Meteorologist, Weather Underground
By Christopher C. Burt
Weather Historian, Weather Underground
October 1, 2014
October 1, 2014
October 1, 2014

Nearby

Snow Depth

Station Depth Elevation
Phillips Bench 0 in 8200 ft
Cold Springs 1 in 9630 ft
Salt River Summit 1 in 7600 ft
Sylvan Lake 1 in 8420 ft
Evening Star 0 in 9200 ft

Earthquake Activity

City Distance Mag. Time & Date
No recent earthquake activity has been reported nearby.
Minimum magnitude displayed is 2.5.

Coastal Water Temperatures

Place Temperature
No Stations Reporting

Nearby Weather Stations